Regional Weather Roundup
Issued by NWS Lake Charles, LA

Home | Current Version | Previous Version | Text Only | Print | Product List | Glossary On
Versions: 1 2 3 4 5 6 7 8 9 10 11 12 13 14 15 16 17 18 19 20 21 22 23 24 25 26 27 28 29 30 31 32 33 34 35 36 37 38 39 40 41 42 43 44 45 46 47 48 49 50
000
ASUS44 KLCH 250610
RWRLCH
REGIONAL WEATHER ROUNDUP
NATIONAL WEATHER SERVICE LAKE CHARLES LA
100 AM CDT TUE JUL 25 2017

Note: "fair" indicates few or no clouds below 12,000 feet with no
significant weather and/or obstructions to visibility.


ACROSS SOUTHEAST TEXAS

CITY           SKY/WX    TMP DP  RH WIND       PRES   REMARKS
BEAUMONT       CLOUDY    79  75  87 S3        30.04R
BEAUMONT CITY  FAIR      80  74  82 MISG      30.05S
ORANGE         CLOUDY    81  77  86 SW6       30.06S
JASPER           N/A     80  77  91 CALM      30.07S
$$

ACROSS CENTRAL LOUISIANA

CITY           SKY/WX    TMP DP  RH WIND       PRES   REMARKS
LEESVILLE      CLOUDY    76  75  95 CALM      30.05R
FULLERTON      FAIR      78  76  93 CALM      30.03S
ALEXANDRIA INT CLOUDY    77  76  96 SE3       30.03S
ESLER FIELD    CLOUDY    77  76  96 CALM      30.05S
DERIDDER       FAIR      79  77  95 CALM      30.07S
OAKDALE        CLOUDY    78  76  94 CALM      30.05S
OPELOUSAS      FAIR      78  77  96 CALM      30.05F
$$

ACROSS SOUTHWEST AND SOUTH CENTRAL LOUISIANA

CITY           SKY/WX    TMP DP  RH WIND       PRES   REMARKS
SULPHUR        CLOUDY    82  76  82 S6        30.06S
LAKE CHARLES   CLOUDY    82  77  84 S5        30.04S
CHENNAULT INT  CLOUDY    81  76  86 S3        30.05S
CAMERON PHI    CLEAR     84  75  74 S12       30.04S
DEQUINCY       FAIR      78  76  94 CALM      30.05S
JENNINGS       FAIR      80  76  89 CALM      30.05S
LAFAYETTE      CLOUDY    81  77  88 SW6       30.06R
NEW IBERIA     CLOUDY    79  75  87 SW3       30.06F
ABBEVILLE      NOT AVBL
PATTERSON      PTCLDY    77  76  96 CALM      30.07S
SALT POINT       N/A     84  76  76 VRB3      30.05S
$$

SELECTED SITES ACROSS THE REGION

CITY           SKY/WX    TMP DP  RH WIND       PRES   REMARKS
HOUSTON BUSH   CLOUDY    82  74  76 S5        30.04R
HOUSTON HOBBY  MOCLDY    81  74  79 S3        30.04R
GALVESTON      PTCLDY    83  76  79 S10       30.05R
COLLEGE STAT   CLOUDY    82  74  76 S10       30.02R
CONROE         PTCLDY    79  73  82 S5        30.05R
HUNTSVILLE     PTCLDY    80  71  74 S7        30.04R
LUFKIN         PTCLDY    77  76  96 SE3       30.04R
SHREVEPORT     CLEAR     77  75  93 S3        30.03R
MONROE         CLEAR     76  73  91 S3        30.03S
NATCHEZ MS     NOT AVBL
BATON ROUGE    CLOUDY    80  75  84 S6        30.06S
N.O. INTL ARPT MOCLDY    78  74  87 S3        30.07S
SLIDELL        CLEAR     75  73  93 CALM      30.06F
$$

MARINE REPORTS

STATION/POSITION TIME  SKY/WX   TEMP    WIND        PRES    VSBY
                                AIR SEA DIR/SP/G
                 (UTC)          (F)     (DEG/KT/KT) (MB)    (MI)
BUOY 30 S HIGH I 0450            85 87  180/ 14/ 16 1016.9
WVE H/P(F/S)=  2/ 6

SEA RIM ST PARK  0600            84     190/ 10/ 12 1018.1R
PORT ARTHUR      0548            81 87  200/  4/  6 1017.8R
SABINE PASS N    0548            84 88  180/  7/ 11 1019.0R
TEXAS POINT      NOT AVBL
CALCASIEU PASS   0548            85 85  220/ 14/ 15 1016.7R
LK CHARLES BEACH 0548            83 85              1017.9R
MARSH ISLAND     NOT AVBL
FRESH WATER LOCK 0548            83 85  190/  8/ 10 1017.8S
AMERADA PASS     0548            82 86   CALM  /  3 1018.0S
$$



USA.gov is the U.S. government's official web portal to all federal, state and local government web resources and services.